GW5197 Weather Reports


time (UTC)temp
F
wind
direction
speed
knots
gust
knots
rain 1hr
in
rain 24hr
in
rain mn
in
humidity
%
barometer
mb
20260906114657 71 226 1.7 1.7 0.00 0.00 0.00 99 1013.0
20260906114157 71 227 1.7 2.6 0.00 0.00 0.00 99 1013.0
20260906113658 71 227 1.7 2.6 0.00 0.00 0.00 99 1013.0
20260906113157 71 227 1.7 3.5 0.00 0.00 0.00 99 1013.0
20260906112658 71 226 1.7 2.6 0.00 0.00 0.00 99 1013.0
20260906112157 71 227 1.7 2.6 0.00 0.00 0.00 99 1013.0
20260906111657 71 226 1.7 2.6 0.00 0.00 0.00 100 1013.0
20260906111157 71 227 1.7 2.6 0.00 0.00 0.00 100 1013.0
20260906110657 71 224 1.7 2.6 0.00 0.00 0.00 100 1013.0
20260906110157 71 226 1.7 2.6 0.00 0.00 0.00 100 1013.0
20260906105657 71 222 1.7 3.5 0.00 0.00 0.00 100 1013.0
20260906105157 71 216 1.7 3.5 0.00 0.00 0.00 100 1013.0
20260906104658 71 224 0.9 1.7 0.00 0.00 0.00 100 1013.0
20260906104157 71 227 0.9 1.7 0.00 0.00 0.00 100 1013.0
20260906103657 71 226 0.9 1.7 0.00 0.00 0.00 100 1013.0
20260906103157 71 227 1.7 1.7 0.00 0.00 0.00 100 1013.0
20260906102657 71 227 2.6 2.6 0.00 0.00 0.00 100 1013.0
20260906102157 71 227 1.7 2.6 0.00 0.00 0.00 100 1013.0
20260906101657 71 227 2.6 2.6 0.00 0.00 0.00 100 1013.0
20260906101158 71 227 1.7 3.5 0.00 0.00 0.00 100 1013.0
20260906100657 71 227 2.6 2.6 0.00 0.00 0.00 100 1013.0
20260906100157 71 228 2.6 2.6 0.00 0.00 0.00 100 1013.0
20260906095658 71 228 2.6 3.5 0.00 0.00 0.00 100 1013.0
20260906095157 71 227 2.6 3.5 0.00 0.00 0.00 100 1013.0
20260906094658 71 227 2.6 3.5 0.00 0.00 0.00 100 1013.0
20260906094158 71 228 2.6 2.6 0.00 0.00 0.00 100 1013.0
20260906093657 71 228 1.7 2.6 0.00 0.00 0.00 100 1013.0
20260906093158 71 227 1.7 2.6 0.00 0.00 0.00 100 1013.0
20260906092657 71 227 1.7 1.7 0.00 0.00 0.00 100 1013.0
20260906092157 71 227 1.7 2.6 0.00 0.00 0.00 100 1013.0
20260906091657 71 227 1.7 1.7 0.00 0.00 0.00 100 1013.0
20260906091157 71 227 1.7 2.6 0.00 0.00 0.00 100 1013.0
20260906090657 71 221 1.7 3.5 0.00 0.00 0.00 100 1013.0
20260906090158 71 227 1.7 1.7 0.00 0.00 0.00 100 1013.0
20260906085657 71 226 1.7 2.6 0.00 0.00 0.00 100 1013.0
20260906085157 71 227 1.7 1.7 0.00 0.00 0.00 100 1013.0
20260906084657 71 224 1.7 2.6 0.00 0.00 0.00 100 1013.0
20260906084157 71 227 1.7 2.6 0.00 0.00 0.00 100 1013.0
20260906083657 71 227 1.7 2.6 0.00 0.00 0.00 100 1013.0
20260906083157 71 227 1.7 1.7 0.00 0.00 0.00 100 1013.0
20260906082657 71 227 1.7 1.7 0.00 0.00 0.00 100 1013.0
20260906082157 71 227 1.7 1.7 0.00 0.00 0.00 100 1013.0
20260906081657 71 224 1.7 1.7 0.00 0.00 0.00 100 1013.0
20260906081157 71 227 1.7 1.7 0.00 0.00 0.00 100 1013.0
20260906080657 71 226 1.7 2.6 0.00 0.00 0.00 100 1013.0
20260906080157 71 227 1.7 2.6 0.00 0.00 0.00 100 1013.0
20260906075657 71 223 2.6 2.6 0.00 0.00 0.00 100 1013.0
20260906075157 71 219 1.7 2.6 0.00 0.00 0.00 100 1013.0
20260906074657 71 227 1.7 2.6 0.00 0.00 0.00 100 1013.0
20260906074157 71 227 0.9 1.7 0.00 0.00 0.00 100 1013.0
20260906073657 71 227 0.9 1.7 0.00 0.00 0.00 100 1013.0
20260906073157 71 226 0.9 1.7 0.00 0.00 0.00 100 1013.0
20260906072657 71 227 1.7 1.7 0.00 0.00 0.00 100 1013.0
20260906072158 71 217 1.7 2.6 0.00 0.00 0.00 100 1013.0
20260906071659 71 226 1.7 1.7 0.00 0.00 0.00 100 1013.0
20260906071157 71 227 0.9 1.7 0.00 0.00 0.00 100 1013.0
20260906070657 71 227 0.9 1.7 0.00 0.00 0.00 100 1013.0
20260906070157 71 227 1.7 1.7 0.00 0.00 0.00 100 1013.0
20260906065657 71 227 1.7 1.7 0.00 0.00 0.00 100 1013.0
20260906065157 71 227 1.7 1.7 0.00 0.00 0.00 100 1013.0
20260906064658 71 227 1.7 1.7 0.00 0.00 0.00 100 1013.0
20260906064157 71 227 1.7 2.6 0.00 0.00 0.00 100 1013.0
20260906063657 71 227 1.7 2.6 0.00 0.00 0.00 100 1013.0
20260906063157 71 227 1.7 2.6 0.00 0.00 0.00 100 1013.0
20260906062657 71 226 1.7 1.7 0.00 0.00 0.00 100 1013.0
20260906062157 71 226 1.7 1.7 0.00 0.00 0.00 100 1013.0
20260906061658 71 227 1.7 1.7 0.00 0.00 0.00 99 1013.0
20260906061157 71 227 0.9 1.7 0.00 0.00 0.00 99 1013.0
20260906060657 71 227 0.9 1.7 0.00 0.00 0.00 99 1014.0
20260906060157 71 227 0.9 1.7 0.00 0.00 0.00 99 1014.0
20260906055657 71 227 1.7 1.7 0.00 0.00 0.00 99 1014.0
20260906055158 71 227 0.9 1.7 0.00 0.00 0.00 99 1014.0
20260906054659 71 227 0.9 0.9 0.00 0.00 0.00 99 1014.0
20260906054158 71 227 1.7 1.7 0.00 0.00 0.00 99 1014.0
20260906053657 71 220 1.7 3.5 0.00 0.00 0.00 99 1014.0
20260906053157 71 225 1.7 1.7 0.00 0.00 0.00 99 1014.0
20260906052657 71 226 1.7 1.7 0.00 0.00 0.00 99 1014.0
20260906052157 72 227 1.7 1.7 0.00 0.00 0.00 99 1014.0
20260906051657 72 227 0.9 1.7 0.00 0.00 0.00 99 1014.0
20260906051159 72 227 0.9 1.7 0.00 0.00 0.00 99 1014.0
20260906050657 72 227 0.9 1.7 0.00 0.00 0.00 99 1014.0
20260906050157 72 227 0.9 1.7 0.00 0.00 0.00 99 1014.0
20260906045657 72 227 0.9 1.7 0.00 0.00 0.00 99 1014.0
20260906045158 72 227 0.9 1.7 0.00 0.00 0.00 99 1014.0
20260906044657 72 227 0.9 0.9 0.00 0.00 0.00 99 1014.0
20260906044157 72 227 1.7 1.7 0.00 0.00 0.00 99 1014.0
20260906043657 72 222 0.9 1.7 0.00 0.00 0.00 99 1014.0
20260906043157 72 219 0.9 2.6 0.00 0.00 0.00 99 1014.0
20260906042657 72 227 1.7 1.7 0.00 0.00 0.00 99 1014.0
20260906042157 72 227 1.7 1.7 0.00 0.00 0.00 99 1014.0
20260906041657 72 220 1.7 3.5 0.00 0.00 0.00 99 1014.0
20260906041200 72 226 1.7 1.7 0.00 0.00 0.00 99 1014.0
20260906040658 72 227 1.7 1.7 0.00 0.00 0.00 99 1014.0
20260906040157 72 227 0.9 1.7 0.00 0.00 0.00 99 1014.0
20260906035657 72 227 0.9 0.9 0.00 0.00 0.36 99 1014.0
20260906035157 72 227 0.9 1.7 0.00 0.00 0.36 99 1014.0
20260906034657 72 227 0.9 0.9 0.00 0.00 0.36 99 1014.0
20260906034157 72 227 0.9 1.7 0.00 0.00 0.36 99 1014.0
20260906033657 72 227 0.9 0.9 0.00 0.00 0.36 99 1014.0
20260906033157 72 227 0.9 1.7 0.00 0.00 0.36 99 1014.0
20260906032658 72 227 0.9 1.7 0.00 0.00 0.36 99 1014.0
20260906032157 72 227 0.9 1.7 0.00 0.00 0.36 99 1014.0
20260906031657 73 227 1.7 1.7 0.00 0.00 0.36 99 1014.0
20260906031157 73 227 0.9 0.9 0.00 0.00 0.36 99 1014.0
20260906030657 73 227 0.9 1.7 0.00 0.00 0.36 99 1014.0
20260906030157 73 227 0.9 1.7 0.00 0.00 0.36 99 1014.0
20260906025657 73 227 0.9 1.7 0.00 0.00 0.36 99 1014.0
20260906025157 73 227 0.9 1.7 0.00 0.00 0.36 99 1014.0
20260906024658 73 227 0.9 1.7 0.00 0.00 0.36 99 1014.0
20260906024157 73 227 0.9 1.7 0.00 0.00 0.36 99 1014.0
20260906023657 73 227 0.9 1.7 0.00 0.00 0.36 99 1014.0
20260906023157 73 227 0.9 1.7 0.00 0.00 0.36 99 1014.0
20260906022657 73 227 1.7 1.7 0.00 0.00 0.36 98 1014.0
20260906022157 73 227 0.9 1.7 0.00 0.00 0.36 98 1014.0
20260906021657 73 227 0.9 1.7 0.00 0.00 0.36 98 1014.0
20260906021157 73 227 1.7 2.6 0.00 0.00 0.36 98 1014.0
20260906020658 73 227 1.7 2.6 0.00 0.00 0.36 98 1014.0
20260906020157 73 227 1.7 2.6 0.00 0.00 0.36 98 1014.0
20260906015657 73 226 0.9 1.7 0.00 0.00 0.36 98 1014.0
20260906015157 73 227 0.9 1.7 0.00 0.00 0.36 98 1014.0
20260906014658 73 227 1.7 1.7 0.00 0.00 0.36 98 1014.0
20260906014157 73 223 0.9 1.7 0.00 0.00 0.36 98 1014.0
20260906013657 73 227 0.9 1.7 0.00 0.00 0.36 98 1014.0
20260906013157 73 227 1.7 1.7 0.00 0.00 0.36 97 1014.0
20260906012658 73 227 1.7 1.7 0.00 0.00 0.36 97 1014.0
20260906012157 73 227 1.7 1.7 0.00 0.00 0.36 97 1014.0
20260906011657 73 226 1.7 2.6 0.00 0.00 0.36 97 1014.0
20260906011157 73 227 0.9 1.7 0.00 0.00 0.36 96 1014.0
20260906010657 73 226 1.7 1.7 0.00 0.00 0.36 96 1014.0
20260906010158 73 226 3.5 3.5 0.00 0.00 0.36 96 1014.0
20260906005657 73 227 2.6 3.5 0.00 0.00 0.36 96 1014.0
20260906005158 73 227 2.6 3.5 0.00 0.00 0.36 96 1014.0
20260906004657 73 226 3.5 4.3 0.00 0.00 0.36 96 1014.0
20260906004157 73 227 3.5 3.5 0.00 0.00 0.36 97 1014.0
20260906003657 72 227 3.5 4.3 0.00 0.00 0.36 97 1014.0
20260906003158 72 227 2.6 3.5 0.00 0.00 0.36 98 1013.0
20260906002658 72 226 1.7 1.7 0.00 0.00 0.36 98 1013.0
20260906002157 72 216 1.7 3.5 0.00 0.00 0.36 98 1013.0
20260906001659 72 227 0.9 1.7 0.00 0.00 0.36 98 1013.0
20260906001158 72 227 0.9 1.7 0.00 0.00 0.36 97 1013.0
20260906000657 72 227 1.7 1.7 0.00 0.00 0.36 97 1013.0
20260906000157 72 227 0.9 0.9 0.00 0.00 0.36 97 1012.0
20260905235659 72 227 0.9 1.7 0.00 0.00 0.35 97 1012.0
20260905235158 72 226 0.9 1.7 0.00 0.00 0.35 97 1012.0
20260905234657 72 228 0.9 1.7 0.00 0.00 0.35 97 1012.0
20260905234158 72 226 0.9 1.7 0.00 0.00 0.35 97 1012.0
20260905233657 72 227 0.9 1.7 0.00 0.00 0.35 96 1011.0
20260905233157 72 227 0.9 1.7 0.00 0.00 0.35 97 1011.0
20260905232657 72 227 1.7 1.7 0.00 0.00 0.33 96 1011.0
20260905232157 72 141 1.7 4.3 0.00 0.00 0.33 95 1011.0
20260905231658 72 127 2.6 4.3 0.00 0.00 0.59 94 1012.0
20260905231157 71 117 3.5 4.3 0.00 0.00 0.59 94 1012.0
20260905230657 71 176 3.5 5.2 0.01 0.00 0.59 94 1012.0
20260905230157 71 178 3.5 4.3 0.04 0.00 0.49 95 1013.0
20260905225657 71 101 3.5 5.2 0.11 0.00 0.48 95 1013.0
20260905225213 72 100 3.5 5.2 0.27 0.00 0.64 94 1013.0
20260905224657 73 112 2.6 5.2 1.96 0.00 0.59 93 1015.0
20260905224157 75 36 4.3 7.8 2.65 0.00 0.39 93 1015.0
20260905223657 76 53 4.3 7.0 1.40 0.00 0.20 90 1016.0
20260905223157 78 73 5.2 9.6 0.11 0.00 0.16 90 1015.0
20260905222657 83 82 3.5 6.1 1.39 0.00 0.09 84 1014.0
20260905222158 89 78 4.3 7.0 0.23 0.00 0.01 68 1014.0
20260905221658 94 49 4.3 7.8 0.00 0.00 0.00 52 1013.0
20260905221234 95 54 2.6 4.3 0.00 0.00 0.00 50 1012.0
20260905220657 96 19 3.5 5.2 0.00 0.00 0.00 47 1012.0
20260905220158 96 10 0.9 1.7 0.00 0.00 0.00 47 1012.0
20260905215700 96 20 0.9 3.5 0.00 0.00 0.00 47 1011.0
20260905215157 96 222 0.0 0.9 0.00 0.00 0.00 47 1011.0
20260905214657 96 341 0.0 1.7 0.00 0.00 0.00 46 1011.0
20260905214157 96 117 1.7 1.7 0.00 0.00 0.00 46 1011.0
20260905213657 96 332 0.9 1.7 0.00 0.00 0.00 45 1011.0
20260905213157 96 118 1.7 2.6 0.00 0.00 0.00 46 1011.0
20260905212657 96 95 1.7 1.7 0.00 0.00 0.00 46 1011.0
20260905212157 96 48 0.9 1.7 0.00 0.00 0.00 46 1011.0
20260905211700 95 130 0.0 1.7 0.00 0.00 0.00 45 1011.0
20260905211157 95 107 0.9 1.7 0.00 0.00 0.00 48 1011.0
20260905210657 95 129 0.0 1.7 0.00 0.00 0.00 47 1011.0
20260905210157 96 54 1.7 2.6 0.00 0.00 0.00 46 1012.0
20260905205658 96 51 0.0 0.9 0.00 0.00 0.00 47 1012.0
20260905205157 96 355 0.0 0.9 0.00 0.00 0.00 46 1012.0
20260905204658 96 98 1.7 3.5 0.00 0.00 0.00 46 1012.0
20260905204157 96 129 0.0 0.9 0.00 0.00 0.00 46 1012.0
20260905203657 96 6 0.9 2.6 0.00 0.00 0.00 46 1012.0
20260905203157 96 15 1.7 2.6 0.00 0.00 0.00 46 1012.0
20260905202657 96 60 0.9 1.7 0.00 0.00 0.00 48 1012.0
20260905202157 96 360 0.0 0.0 0.00 0.00 0.00 46 1012.0
20260905201657 96 320 0.0 1.7 0.00 0.00 0.00 46 1012.0
20260905201157 95 330 0.0 0.9 0.00 0.00 0.00 47 1012.0
20260905200658 95 114 0.9 2.6 0.00 0.00 0.00 45 1012.0
20260905200157 95 306 1.7 2.6 0.00 0.00 0.00 47 1012.0
20260905195657 95 79 1.7 2.6 0.00 0.00 0.00 47 1012.0
20260905195157 95 360 1.7 3.5 0.00 0.00 0.00 46 1012.0
20260905194657 95 7 2.6 3.5 0.00 0.00 0.00 47 1012.0
20260905194157 95 105 1.7 3.5 0.00 0.00 0.00 49 1012.0
20260905193657 95 58 0.9 1.7 0.00 0.00 0.00 48 1012.0
20260905193157 95 1 1.7 2.6 0.00 0.00 0.00 47 1012.0
20260905192658 95 45 0.9 1.7 0.00 0.00 0.00 47 1013.0
20260905192157 96 19 1.7 2.6 0.00 0.00 0.00 48 1013.0
20260905191659 96 307 1.7 2.6 0.00 0.00 0.00 49 1013.0
20260905191157 96 21 0.9 1.7 0.00 0.00 0.00 49 1013.0
20260905190657 95 104 0.9 2.6 0.00 0.00 0.00 50 1013.0
20260905190157 95 24 0.9 1.7 0.00 0.00 0.00 50 1013.0
20260905185657 94 124 0.0 1.7 0.00 0.00 0.00 50 1013.0
20260905185157 94 65 0.9 1.7 0.00 0.00 0.00 49 1013.0
20260905184657 93 340 1.7 1.7 0.00 0.00 0.00 51 1013.0
20260905184157 92 71 0.0 0.9 0.00 0.00 0.00 54 1013.0
20260905183657 93 311 1.7 2.6 0.00 0.00 0.00 54 1013.0
20260905183157 94 360 0.0 0.0 0.00 0.00 0.00 55 1013.0
20260905182658 94 98 0.9 2.6 0.00 0.00 0.00 52 1014.0
20260905182201 95 10 2.6 3.5 0.00 0.00 0.00 51 1013.0
20260905181659 95 278 1.7 2.6 0.00 0.00 0.00 51 1013.0
20260905181157 95 336 1.7 3.5 0.00 0.00 0.00 51 1013.0
20260905180657 95 32 0.9 1.7 0.00 0.00 0.00 51 1014.0
20260905180157 95 74 0.9 2.6 0.00 0.00 0.00 52 1014.0
20260905175657 94 140 0.9 1.7 0.00 0.00 0.00 54 1014.0
20260905175157 94 333 1.7 2.6 0.00 0.00 0.00 52 1014.0
20260905174658 94 18 0.9 3.5 0.00 0.00 0.00 53 1014.0
20260905174158 93 348 1.7 3.5 0.00 0.00 0.00 54 1014.0
20260905173657 92 351 1.7 1.7 0.00 0.00 0.00 54 1014.0
20260905173157 92 194 0.0 1.7 0.00 0.00 0.00 56 1014.0
20260905172657 92 122 0.9 2.6 0.00 0.00 0.00 57 1014.0
20260905172159 93 132 1.7 2.6 0.00 0.00 0.00 55 1014.0
20260905171657 94 129 0.9 2.6 0.00 0.00 0.00 54 1014.0
20260905171157 93 63 1.7 2.6 0.00 0.00 0.00 55 1014.0
20260905170657 93 48 1.7 2.6 0.00 0.00 0.00 54 1014.0
20260905170157 92 3 0.9 2.6 0.00 0.00 0.00 56 1014.0
20260905165657 92 6 0.9 2.6 0.00 0.00 0.00 57 1014.0
20260905165157 92 10 3.5 5.2 0.00 0.00 0.00 56 1014.0
20260905164658 92 223 0.0 0.9 0.00 0.00 0.00 55 1014.0
20260905164157 92 67 1.7 2.6 0.00 0.00 0.00 57 1015.0
20260905163657 92 345 0.0 1.7 0.00 0.00 0.00 56 1015.0
20260905163200 91 10 0.9 1.7 0.00 0.00 0.00 57 1015.0
20260905162657 92 124 2.6 3.5 0.00 0.00 0.00 56 1015.0
20260905162157 92 329 1.7 3.5 0.00 0.00 0.00 56 1015.0
20260905161658 92 31 1.7 5.2 0.00 0.00 0.00 55 1015.0
20260905161157 92 8 0.9 2.6 0.00 0.00 0.00 56 1015.0
20260905160658 91 19 1.7 4.3 0.00 0.00 0.00 57 1015.0
20260905160158 92 96 1.7 2.6 0.00 0.00 0.00 58 1015.0
20260905155657 92 321 1.7 1.7 0.00 0.00 0.00 58 1015.0
20260905155157 91 99 0.0 1.7 0.00 0.00 0.00 59 1015.0
20260905154657 90 286 0.9 1.7 0.00 0.00 0.00 60 1015.0
20260905154157 90 88 1.7 3.5 0.00 0.00 0.00 61 1015.0
20260905153657 90 123 2.6 4.3 0.00 0.00 0.00 61 1015.0
20260905153157 89 95 0.9 1.7 0.00 0.00 0.00 63 1015.0
20260905152707 89 140 1.7 2.6 0.00 0.00 0.00 63 1015.0
20260905152158 89 135 0.0 0.9 0.00 0.00 0.00 62 1015.0
20260905151658 89 133 0.9 1.7 0.00 0.00 0.00 62 1015.0
20260905151157 89 31 0.9 0.9 0.00 0.00 0.00 64 1015.0
20260905150658 89 112 0.9 2.6 0.00 0.00 0.00 65 1015.0
20260905150157 88 105 0.0 0.9 0.00 0.00 0.00 65 1015.0
20260905145657 87 258 0.9 1.7 0.00 0.00 0.00 66 1015.0
20260905145158 87 356 2.6 3.5 0.00 0.00 0.00 66 1015.0
20260905144657 86 114 0.9 1.7 0.00 0.00 0.00 68 1015.0
20260905144157 86 33 0.9 1.7 0.00 0.00 0.00 69 1015.0
20260905143657 86 348 0.9 1.7 0.00 0.00 0.00 68 1015.0
20260905143157 85 360 1.7 2.6 0.00 0.00 0.00 68 1015.0
20260905142657 85 60 0.9 1.7 0.00 0.00 0.00 70 1016.0
20260905142157 84 347 1.7 2.6 0.00 0.00 0.00 70 1016.0
20260905141657 84 350 0.9 1.7 0.00 0.00 0.00 71 1016.0
20260905141157 83 4 0.9 1.7 0.00 0.00 0.00 71 1016.0
20260905140658 83 323 0.9 1.7 0.00 0.00 0.00 73 1016.0
20260905140158 82 49 0.9 1.7 0.00 0.00 0.00 74 1016.0
20260905135658 82 30 0.0 0.9 0.00 0.00 0.00 74 1016.0
20260905135157 81 320 0.9 0.9 0.00 0.00 0.00 75 1016.0
20260905134657 81 123 0.9 2.6 0.00 0.00 0.00 77 1016.0
20260905134157 80 109 0.9 1.7 0.00 0.00 0.00 80 1016.0
20260905133657 80 104 0.9 1.7 0.00 0.00 0.00 80 1016.0
20260905133158 80 114 0.9 1.7 0.00 0.00 0.00 81 1016.0
20260905132657 79 87 0.9 1.7 0.00 0.00 0.00 80 1016.0
20260905132157 78 121 0.0 0.9 0.00 0.00 0.00 84 1016.0
20260905131657 78 79 0.9 1.7 0.00 0.00 0.00 85 1016.0
20260905131157 78 122 0.0 0.9 0.00 0.00 0.00 85 1016.0
20260905130657 77 64 0.0 0.9 0.00 0.00 0.00 87 1016.0
20260905130158 76 124 0.9 1.7 0.00 0.00 0.00 86 1016.0
20260905125657 76 135 0.9 1.7 0.00 0.00 0.00 89 1016.0
20260905125157 75 152 0.0 0.0 0.00 0.00 0.00 91 1016.0
20260905124658 75 124 0.0 0.9 0.00 0.00 0.00 91 1016.0
20260905124157 75 152 0.0 0.9 0.00 0.00 0.00 92 1016.0
20260905123658 74 161 0.0 0.9 0.00 0.00 0.00 92 1016.0
20260905122745 74 126 0.0 1.7 0.00 0.00 0.00 93 1016.0
20260905122157 73 137 0.0 1.7 0.00 0.00 0.00 94 1016.0
20260905121657 73 208 0.0 0.9 0.00 0.00 0.00 94 1016.0
20260905120709 73 105 0.9 1.7 0.00 0.00 0.00 94 1016.0
20260905120157 73 58 0.0 0.0 0.00 0.00 0.00 95 1016.0
20260905115657 73 188 0.0 0.0 0.00 0.00 0.00 95 1016.0
20260905115157 73 198 0.0 0.9 0.00 0.00 0.00 95 1016.0